OAO 3 (COPERNICUS) (6153 NORAD) Tracking and Keplerian Element Data

This shows tracking and keplerian element data for the satellite.

Feedback or suggestion? Click here.




ElementValue
Catalog6153
NameOAO 3 (COPERNICUS)
Epoch Orbit78782
Epoch Day34.45057823
Epoch Year2025
RAAN51.1377
Inclination35.0066
Eccentricity0.0006265
Argument of Perigee140.7017
Mean Anonmoly7.6768
Mean Motion14.59512494
Decay Rate9.88E-06
L11 06153U 72065A 25034.45057823 .00000988 00000+0 20941-3 0 9996
L22 06153 35.0066 51.1377 0006265 140.7017 7.6768 14.59512494787820



Live tracking and technical data element details for OAO 3 (COPERNICUS) (NORAD 6153). OAO 3 (COPERNICUS) can be tracked NOW for your location showing map with azimuth and elevation plus other details from your city location.







IsCatalogInMostPopularTable: catalog: 6153, numindb: 657
Update: records affected: 1



GetName: 6153 OAO 3 (COPERNICUS)

Hit Count: updated at: Sat, 17 May 2025 10:09:11 GMT